| time (UTC) | temp C | wind direction | speed KPH | gust KPH | rain 1hr cm | rain 24hr cm | rain mn cm | humidity % | barometer mb |
| 20260506085558 | 11 | 50 | 0.0 | 1.6 | 0.13 | 0.00 | 0.61 | 91 | 1004.4 |
| 20260506084057 | 11 | 98 | 0.0 | 0.0 | 0.00 | 0.00 | 0.58 | 91 | 1004.0 |
| 20260506082557 | 11 | 33 | 0.0 | 0.0 | 0.00 | 0.00 | 0.58 | 91 | 1004.0 |
| 20260506081056 | 11 | 352 | 0.0 | 1.6 | 0.00 | 0.00 | 0.56 | 91 | 1004.0 |
| 20260506072553 | 11 | 7 | 0.0 | 0.0 | 0.00 | 0.00 | 0.51 | 92 | 1003.4 |
| 20260506071052 | 11 | 3 | 1.6 | 1.6 | 0.00 | 0.00 | 0.51 | 92 | 1003.7 |
| 20260506061049 | 11 | 47 | 0.0 | 0.0 | 0.00 | 0.00 | 0.41 | 92 | 1003.4 |
| 20260506051046 | 10 | 35 | 0.0 | 0.0 | 0.00 | 0.00 | 0.33 | 92 | 1003.4 |
| 20260506044044 | 10 | 28 | 0.0 | 0.0 | 0.00 | 0.00 | 0.33 | 92 | 1003.4 |
| 20260506042543 | 11 | 43 | 0.0 | 0.0 | 0.00 | 0.00 | 0.33 | 92 | 1003.4 |
| 20260506041042 | 11 | 5 | 0.0 | 0.0 | 0.13 | 0.00 | 0.33 | 92 | 1003.4 |
| 20260506035541 | 11 | 116 | 0.0 | 0.0 | 0.00 | 0.00 | 0.30 | 92 | 1003.7 |
| 20260506034041 | 11 | 357 | 0.0 | 0.0 | 0.00 | 0.00 | 0.30 | 92 | 1003.7 |
| 20260506032539 | 11 | 18 | 0.0 | 0.0 | 0.00 | 0.00 | 0.30 | 92 | 1003.4 |
| 20260506031039 | 11 | 0 | 0.0 | 0.0 | 0.00 | 0.00 | 0.28 | 92 | 1003.4 |
| 20260506025537 | 11 | 337 | 0.0 | 0.0 | 0.13 | 0.00 | 0.28 | 92 | 1003.7 |
| 20260506024036 | 11 | 54 | 0.0 | 0.0 | 0.18 | 0.00 | 0.25 | 92 | 1003.7 |
| 20260506022535 | 11 | 348 | 0.0 | 1.6 | 0.13 | 0.00 | 0.23 | 92 | 1004.0 |
| 20260506021035 | 11 | 103 | 0.0 | 0.0 | 0.18 | 0.00 | 0.20 | 92 | 1004.0 |
| 20260506015534 | 11 | 68 | 0.0 | 0.0 | 0.00 | 0.00 | 0.15 | 92 | 1004.0 |
| 20260506014033 | 11 | 11 | 0.0 | 0.0 | 0.00 | 0.00 | 0.13 | 92 | 1004.0 |
| 20260506012533 | 11 | 38 | 0.0 | 0.0 | 0.00 | 0.00 | 0.10 | 92 | 1004.4 |
| 20260506011031 | 11 | 359 | 0.0 | 0.0 | 0.00 | 0.00 | 0.10 | 92 | 1004.4 |
| 20260506005530 | 11 | 75 | 0.0 | 0.0 | 0.00 | 0.00 | 0.10 | 92 | 1004.4 |
| 20260506004029 | 11 | 56 | 0.0 | 1.6 | 0.00 | 0.00 | 0.10 | 92 | 1004.4 |
| 20260506002528 | 11 | 357 | 0.0 | 0.0 | 0.00 | 0.00 | 0.10 | 92 | 1004.4 |
| 20260506001027 | 11 | 35 | 0.0 | 0.0 | 0.00 | 0.00 | 0.10 | 92 | 1004.7 |
| 20260505235526 | 11 | 356 | 0.0 | 0.0 | 0.00 | 0.00 | 0.10 | 92 | 1004.7 |
| 20260505234025 | 11 | 3 | 0.0 | 0.0 | 0.00 | 0.00 | 0.10 | 92 | 1004.7 |
| 20260505232524 | 11 | 339 | 0.0 | 0.0 | 0.00 | 0.00 | 0.10 | 92 | 1004.7 |
| 20260505231023 | 11 | 36 | 0.0 | 0.0 | 0.18 | 0.00 | 0.10 | 92 | 1005.1 |
| 20260505225523 | 11 | 73 | 0.0 | 0.0 | 0.00 | 0.00 | 0.08 | 92 | 1005.1 |
| 20260505224022 | 11 | 40 | 0.0 | 1.6 | 0.13 | 0.00 | 0.08 | 92 | 1005.1 |
| 20260505222521 | 11 | 32 | 0.0 | 0.0 | 0.18 | 0.00 | 0.05 | 92 | 1005.1 |
| 20260505221020 | 11 | 28 | 0.0 | 0.0 | 0.18 | 0.00 | 0.03 | 92 | 1005.1 |
| 20260505215519 | 12 | 345 | 0.0 | 0.0 | 0.00 | 0.00 | 2.13 | 92 | 1005.4 |
| 20260505214018 | 12 | 32 | 0.0 | 0.0 | 0.18 | 0.00 | 2.11 | 92 | 1005.4 |
| 20260505212517 | 12 | 301 | 0.0 | 0.0 | 0.18 | 0.00 | 2.06 | 92 | 1005.4 |
| 20260505211016 | 12 | 20 | 0.0 | 0.0 | 0.30 | 0.00 | 2.03 | 92 | 1005.7 |
| 20260505205515 | 12 | 5 | 0.0 | 0.0 | 0.13 | 0.00 | 1.98 | 92 | 1005.4 |
| 20260505204014 | 12 | 132 | 0.0 | 0.0 | 0.18 | 0.00 | 1.96 | 92 | 1005.4 |
| 20260505202513 | 12 | 357 | 0.0 | 0.0 | 0.13 | 0.00 | 1.93 | 92 | 1005.4 |
| 20260505201012 | 12 | 261 | 0.0 | 0.0 | 0.18 | 0.00 | 1.88 | 92 | 1005.4 |
| 20260505195511 | 12 | 309 | 0.0 | 0.0 | 0.30 | 0.00 | 1.85 | 92 | 1005.4 |
| 20260505194010 | 12 | 3 | 0.0 | 0.0 | 0.30 | 0.00 | 1.80 | 92 | 1005.1 |
| 20260505192509 | 12 | 332 | 1.6 | 1.6 | 0.30 | 0.00 | 1.73 | 92 | 1005.1 |
| 20260505191008 | 12 | 341 | 1.6 | 3.2 | 0.48 | 0.00 | 1.68 | 92 | 1005.1 |
| 20260505185507 | 12 | 67 | 0.0 | 0.0 | 0.48 | 0.00 | 1.60 | 92 | 1005.1 |
| 20260505184007 | 12 | 3 | 0.0 | 1.6 | 0.30 | 0.00 | 1.50 | 91 | 1005.1 |
| 20260505182506 | 13 | 331 | 0.0 | 0.0 | 0.61 | 0.00 | 1.40 | 91 | 1005.1 |
| 20260505181005 | 13 | 59 | 0.0 | 1.6 | 0.66 | 0.00 | 1.24 | 91 | 1005.1 |
| 20260505175504 | 13 | 316 | 1.6 | 3.2 | 0.61 | 0.00 | 1.12 | 91 | 1005.1 |
| 20260505174000 | 13 | 9 | 0.0 | 0.0 | 0.43 | 0.00 | 0.99 | 91 | 1005.1 |
| 20260505172459 | 13 | 332 | 4.8 | 6.4 | 0.36 | 0.00 | 0.91 | 91 | 1005.1 |
| 20260505170958 | 13 | 354 | 0.0 | 0.0 | 0.48 | 0.00 | 0.84 | 90 | 1005.1 |
| 20260505165456 | 14 | 346 | 0.0 | 1.6 | 0.30 | 0.00 | 0.71 | 90 | 1005.1 |
| 20260505163956 | 14 | 33 | 1.6 | 1.6 | 0.48 | 0.00 | 0.61 | 89 | 1005.1 |
| 20260505162455 | 14 | 67 | 1.6 | 4.8 | 0.18 | 0.00 | 0.51 | 89 | 1005.1 |
| 20260505160953 | 15 | 344 | 1.6 | 1.6 | 0.30 | 0.00 | 0.46 | 89 | 1004.7 |
| 20260505152450 | 15 | 317 | 1.6 | 3.2 | 0.13 | 0.00 | 0.15 | 86 | 1005.1 |
| 20260505150949 | 16 | 353 | 1.6 | 1.6 | 0.13 | 0.00 | 0.10 | 83 | 1005.4 |
| 20260505123939 | 17 | 323 | 3.2 | 4.8 | 0.00 | 0.00 | 0.08 | 71 | 1006.4 |
| 20260505122438 | 17 | 59 | 0.0 | 0.0 | 0.00 | 0.00 | 0.08 | 71 | 1006.1 |
| 20260505120937 | 17 | 0 | 0.0 | 1.6 | 0.00 | 0.00 | 0.08 | 76 | 1006.1 |
| 20260505115436 | 17 | 79 | 0.0 | 0.0 | 0.00 | 0.00 | 0.08 | 73 | 1006.4 |
| 20260505113935 | 17 | 12 | 0.0 | 0.0 | 0.00 | 0.00 | 0.08 | 73 | 1006.4 |
| 20260505112434 | 17 | 68 | 0.0 | 0.0 | 0.00 | 0.00 | 0.08 | 76 | 1006.4 |
| 20260505110932 | 16 | 61 | 3.2 | 3.2 | 0.00 | 0.00 | 0.08 | 75 | 1006.4 |
| 20260505100928 | 15 | 59 | 0.0 | 0.0 | 0.00 | 0.00 | 0.08 | 86 | 1007.1 |
| 20260505095428 | 15 | 350 | 0.0 | 0.0 | 0.00 | 0.00 | 0.08 | 87 | 1007.1 |
| 20260505093927 | 15 | 49 | 1.6 | 1.6 | 0.00 | 0.00 | 0.08 | 86 | 1007.1 |
| 20260505092426 | 15 | 61 | 1.6 | 1.6 | 0.00 | 0.00 | 0.08 | 88 | 1007.4 |
| 20260505090926 | 15 | 8 | 0.0 | 0.0 | 0.00 | 0.00 | 0.08 | 89 | 1007.4 |